Location: ??????
(31.2056°N, 45.3906°E)
Time: 13:55:31
(UTC+00:00)

Cosmos 1953 Rocket - Pass Details

Date: 09 April 2020
Orbit: 603 x 635 km, 82.5° (Epoch: 05 June)

Event Time Altitude Azimuth Distance (km) Brightness Sun altitude
Rises 16:15:43 0° 3° (N) 2,933 7.2 -11.8°
Reaches altitude 10° 16:18:05 10° 12° (NNE) 2,023 6.3 -12.2°
Maximum altitude 16:22:17 38° 81° (E) 974 4.1 -13.1°
Enters shadow 16:25:31 15° 143° (SE) 1,682 5.3 -13.8°
